Location: �perlecques
(50.8057°N, 2.1521°E)
Time: 20:44:04
(UTC+00:00)

Oscar 11 - Pass Details

Date: 27 September 2021
Orbit: 612 x 625 km, 97.6° (Epoch: 28 October)

Event Time Altitude Azimuth Distance (km) Brightness Sun altitude
Rises 05:00:20 0° 19° (NNE) 2,894 10.9 -8.0°
Reaches altitude 10° 05:02:39 10° 27° (NNE) 1,983 10.2 -7.6°
Maximum altitude 05:06:42 39° 97° (E) 925 8.7 -7.0°
Drops below altitude 10° 05:10:44 10° 167° (SSE) 1,969 9.8 -6.3°
Sets 05:13:01 0° 175° (S) 2,870 10.5 -6.0°
